Time,TemperatureF,DewpointF,PressureIn,WindDirection,WindDirectionDegrees,WindSpeedMPH,WindSpeedGustMPH,Humidity,HourlyPrecipIn,Conditions,Clouds,dailyrainin,SoftwareType,DateUTC
2013-04-01 00:01:00,52.7,37.9,29.96,NNE,26,2.0,2.0,57,0.00,,,0.00,Wunderground v.1.15,2013-04-01 07:01:00,
2013-04-01 00:07:00,53.2,37.9,29.96,NNE,26,0.0,2.0,56,0.00,,,0.00,Wunderground v.1.15,2013-04-01 07:07:00,
2013-04-01 00:12:00,52.1,37.3,29.96,SSE,151,3.0,3.0,57,0.00,,,0.00,Wunderground v.1.15,2013-04-01 07:12:00,
2013-04-01 00:17:00,51.4,37.5,29.97,SSE,151,1.0,3.0,59,0.00,,,0.00,Wunderground v.1.15,2013-04-01 07:17:00,
2013-04-01 00:23:00,51.9,36.7,29.96,SSE,151,0.0,2.0,56,0.00,,,0.00,Wunderground v.1.15,2013-04-01 07:23:00,
2013-04-01 00:29:00,52.3,37.5,29.97,SSE,151,2.0,2.0,57,0.00,,,0.00,Wunderground v.1.15,2013-04-01 07:29:00,
2013-04-01 00:35:00,51.1,37.7,29.97,SSE,151,0.0,3.0,60,0.00,,,0.00,Wunderground v.1.15,2013-04-01 07:35:00,
2013-04-01 00:41:00,51.2,37.4,29.96,SSE,151,0.0,1.0,59,0.00,,,0.00,Wunderground v.1.15,2013-04-01 07:41:00,
2013-04-01 00:47:00,51.2,37.4,29.97,SSE,151,0.0,1.0,59,0.00,,,0.00,Wunderground v.1.15,2013-04-01 07:47:00,
2013-04-01 00:53:00,50.6,37.6,29.97,SSE,151,0.0,0.0,61,0.00,,,0.00,Wunderground v.1.15,2013-04-01 07:53:00,
2013-04-01 00:59:00,50.1,37.2,29.97,SSE,151,0.0,0.0,61,0.00,,,0.00,Wunderground v.1.15,2013-04-01 07:59:00,
2013-04-01 01:05:00,50.0,37.1,29.97,SSE,151,3.0,3.0,61,0.00,,,0.00,Wunderground v.1.15,2013-04-01 08:05:00,
2013-04-01 01:10:00,51.0,37.2,29.97,SSE,151,1.0,1.0,59,0.00,,,0.00,Wunderground v.1.15,2013-04-01 08:10:00,
2013-04-01 01:15:00,51.7,36.9,29.97,SSE,151,1.0,2.0,57,0.00,,,0.00,Wunderground v.1.15,2013-04-01 08:15:00,
2013-04-01 01:20:00,52.0,37.2,29.97,SSE,151,0.0,1.0,57,0.00,,,0.00,Wunderground v.1.15,2013-04-01 08:20:00,
2013-04-01 01:26:00,51.8,37.0,29.97,SSE,151,0.0,2.0,57,0.00,,,0.00,Wunderground v.1.15,2013-04-01 08:26:00,
2013-04-01 01:31:00,51.4,37.1,29.97,SSE,151,1.0,1.0,58,0.00,,,0.00,Wunderground v.1.15,2013-04-01 08:31:00,
2013-04-01 01:37:00,50.6,37.2,29.97,SSE,151,0.0,1.0,60,0.00,,,0.00,Wunderground v.1.15,2013-04-01 08:37:00,
2013-04-01 01:43:00,50.5,37.1,29.97,SSE,151,0.0,0.0,60,0.00,,,0.00,Wunderground v.1.15,2013-04-01 08:43:00,
2013-04-01 01:48:00,50.4,37.0,29.97,SSE,151,0.0,0.0,60,0.00,,,0.00,Wunderground v.1.15,2013-04-01 08:48:00,
2013-04-01 01:54:00,50.1,37.6,29.97,SSE,151,0.0,0.0,62,0.00,,,0.00,Wunderground v.1.15,2013-04-01 08:54:00,
2013-04-01 01:59:00,49.6,37.5,29.97,SSE,151,0.0,0.0,63,0.00,,,0.00,Wunderground v.1.15,2013-04-01 08:59:00,
2013-04-01 02:04:00,49.3,37.2,29.97,SSE,151,0.0,0.0,63,0.00,,,0.00,Wunderground v.1.15,2013-04-01 09:04:00,
2013-04-01 02:09:00,49.0,37.3,29.97,SSE,151,0.0,0.0,64,0.00,,,0.00,Wunderground v.1.15,2013-04-01 09:09:00,
2013-04-01 02:14:00,49.7,37.6,29.97,SSE,151,1.0,2.0,63,0.00,,,0.00,Wunderground v.1.15,2013-04-01 09:14:00,
2013-04-01 02:19:00,50.5,37.5,29.97,SSE,151,4.0,4.0,61,0.00,,,0.00,Wunderground v.1.15,2013-04-01 09:19:00,
2013-04-01 02:24:00,50.6,37.6,29.97,NNW,329,4.0,5.0,61,0.00,,,0.00,Wunderground v.1.15,2013-04-01 09:24:00,
2013-04-01 02:29:00,50.3,37.4,29.97,NNW,329,2.0,5.0,61,0.00,,,0.00,Wunderground v.1.15,2013-04-01 09:29:00,
2013-04-01 02:34:00,50.1,37.2,29.97,NNW,329,3.0,5.0,61,0.00,,,0.00,Wunderground v.1.15,2013-04-01 09:34:00,
2013-04-01 02:39:00,50.0,37.1,29.97,NNW,329,3.0,5.0,61,0.00,,,0.00,Wunderground v.1.15,2013-04-01 09:39:00,
2013-04-01 02:44:00,49.9,37.4,29.97,NNW,329,4.0,5.0,62,0.00,,,0.00,Wunderground v.1.15,2013-04-01 09:44:00,
2013-04-01 02:49:00,49.7,36.8,29.97,North,360,7.0,7.0,61,0.00,,,0.00,Wunderground v.1.15,2013-04-01 09:49:00,
2013-04-01 02:54:00,49.5,37.0,29.97,North,5,5.0,7.0,62,0.00,,,0.00,Wunderground v.1.15,2013-04-01 09:54:00,
2013-04-01 02:59:00,49.0,36.9,29.97,North,9,2.0,7.0,63,0.00,,,0.00,Wunderground v.1.15,2013-04-01 09:59:00,
2013-04-01 03:04:00,48.5,37.3,29.97,North,11,5.0,5.0,65,0.00,,,0.00,Wunderground v.1.15,2013-04-01 10:04:00,
2013-04-01 03:09:00,48.1,36.9,29.97,North,11,3.0,6.0,65,0.00,,,0.00,Wunderground v.1.15,2013-04-01 10:09:00,
2013-04-01 03:14:00,47.6,36.8,29.97,North,11,5.0,5.0,66,0.00,,,0.00,Wunderground v.1.15,2013-04-01 10:14:00,
2013-04-01 03:19:00,47.3,36.9,29.97,North,11,4.0,5.0,67,0.00,,,0.00,Wunderground v.1.15,2013-04-01 10:19:00,
2013-04-01 03:24:00,47.0,36.6,29.97,North,11,5.0,6.0,67,0.00,,,0.00,Wunderground v.1.15,2013-04-01 10:24:00,
2013-04-01 03:29:00,47.0,36.2,29.97,North,10,7.0,7.0,66,0.00,,,0.00,Wunderground v.1.15,2013-04-01 10:29:00,
2013-04-01 03:34:00,47.0,36.2,29.97,North,11,6.0,7.0,66,0.00,,,0.00,Wunderground v.1.15,2013-04-01 10:34:00,
2013-04-01 03:39:00,46.9,36.5,29.97,NNE,15,5.0,8.0,67,0.00,,,0.00,Wunderground v.1.15,2013-04-01 10:39:00,
2013-04-01 03:45:00,46.8,36.4,29.97,NNE,24,5.0,6.0,67,0.00,,,0.00,Wunderground v.1.15,2013-04-01 10:45:00,
2013-04-01 03:50:00,46.9,36.5,29.97,NNE,17,5.0,5.0,67,0.00,,,0.00,Wunderground v.1.15,2013-04-01 10:50:00,
2013-04-01 03:55:00,46.9,36.1,29.97,NNE,13,5.0,7.0,66,0.00,,,0.00,Wunderground v.1.15,2013-04-01 10:55:00,
2013-04-01 04:00:00,46.9,36.1,29.97,North,9,8.0,8.0,66,0.00,,,0.00,Wunderground v.1.15,2013-04-01 11:00:00,
2013-04-01 04:05:00,46.7,35.9,29.97,NNE,13,6.0,8.0,66,0.00,,,0.00,Wunderground v.1.15,2013-04-01 11:05:00,
2013-04-01 04:10:00,46.5,36.1,29.97,North,5,6.0,6.0,67,0.00,,,0.00,Wunderground v.1.15,2013-04-01 11:10:00,
2013-04-01 04:15:00,46.2,35.8,29.97,NNE,18,6.0,8.0,67,0.00,,,0.00,Wunderground v.1.15,2013-04-01 11:15:00,
2013-04-01 04:20:00,45.9,35.9,29.97,NNE,18,6.0,8.0,68,0.00,,,0.00,Wunderground v.1.15,2013-04-01 11:20:00,
2013-04-01 04:25:00,45.6,36.0,29.97,North,11,6.0,8.0,69,0.00,,,0.00,Wunderground v.1.15,2013-04-01 11:25:00,
2013-04-01 04:30:00,45.5,35.9,29.98,NNE,13,7.0,8.0,69,0.00,,,0.00,Wunderground v.1.15,2013-04-01 11:30:00,
2013-04-01 04:35:00,45.4,35.8,29.98,North,5,5.0,8.0,69,0.00,,,0.00,Wunderground v.1.15,2013-04-01 11:35:00,
2013-04-01 04:40:00,45.4,35.8,29.98,North,5,3.0,5.0,69,0.00,,,0.00,Wunderground v.1.15,2013-04-01 11:40:00,
2013-04-01 04:45:00,45.5,35.5,29.98,North,5,4.0,6.0,68,0.00,,,0.00,Wunderground v.1.15,2013-04-01 11:45:00,
2013-04-01 04:50:00,45.4,35.8,29.98,NNE,17,5.0,5.0,69,0.00,,,0.00,Wunderground v.1.15,2013-04-01 11:50:00,
2013-04-01 04:55:00,45.1,35.5,29.98,NNE,19,6.0,6.0,69,0.00,,,0.00,Wunderground v.1.15,2013-04-01 11:55:00,
2013-04-01 05:01:00,44.9,35.7,29.98,NNE,22,4.0,5.0,70,0.00,,,0.00,Wunderground v.1.15,2013-04-01 12:01:00,
2013-04-01 05:06:00,44.8,35.2,29.98,NNE,25,2.0,6.0,69,0.00,,,0.00,Wunderground v.1.15,2013-04-01 12:06:00,
2013-04-01 05:10:00,44.9,35.3,29.98,NNE,26,2.0,4.0,69,0.00,,,0.00,Wunderground v.1.15,2013-04-01 12:10:00,
2013-04-01 05:16:00,45.0,35.1,29.98,NNE,25,4.0,5.0,68,0.00,,,0.00,Wunderground v.1.15,2013-04-01 12:16:00,
2013-04-01 05:21:00,45.1,35.2,29.98,NNE,25,4.0,5.0,68,0.00,,,0.00,Wunderground v.1.15,2013-04-01 12:21:00,
2013-04-01 05:26:00,45.2,35.3,29.97,NNE,20,5.0,8.0,68,0.00,,,0.00,Wunderground v.1.15,2013-04-01 12:26:00,
2013-04-01 05:31:00,45.1,35.2,29.98,NNE,13,5.0,7.0,68,0.00,,,0.00,Wunderground v.1.15,2013-04-01 12:31:00,
2013-04-01 05:36:00,45.0,35.1,29.98,NNE,15,6.0,7.0,68,0.00,,,0.00,Wunderground v.1.15,2013-04-01 12:36:00,
2013-04-01 05:41:00,45.0,35.1,29.98,NNE,24,4.0,5.0,68,0.00,,,0.00,Wunderground v.1.15,2013-04-01 12:41:00,
2013-04-01 05:46:00,44.9,35.0,29.98,NNE,26,3.0,5.0,68,0.00,,,0.00,Wunderground v.1.15,2013-04-01 12:46:00,
2013-04-01 05:52:00,44.9,34.6,29.98,NNE,26,3.0,4.0,67,0.00,,,0.00,Wunderground v.1.15,2013-04-01 12:52:00,
2013-04-01 05:57:00,45.0,34.7,29.98,NNE,25,4.0,6.0,67,0.00,,,0.00,Wunderground v.1.15,2013-04-01 12:57:00,
2013-04-01 06:02:00,45.0,34.7,29.98,North,9,4.0,6.0,67,0.00,,,0.00,Wunderground v.1.15,2013-04-01 13:02:00,
2013-04-01 06:07:00,45.0,34.3,29.98,North,5,5.0,6.0,66,0.00,,,0.00,Wunderground v.1.15,2013-04-01 13:07:00,
2013-04-01 06:12:00,45.1,34.4,29.98,North,360,4.0,7.0,66,0.00,,,0.00,Wunderground v.1.15,2013-04-01 13:12:00,
2013-04-01 06:17:00,45.0,34.3,29.98,North,360,3.0,7.0,66,0.00,,,0.00,Wunderground v.1.15,2013-04-01 13:17:00,
2013-04-01 06:22:00,44.9,34.6,29.98,North,360,4.0,7.0,67,0.00,,,0.00,Wunderground v.1.15,2013-04-01 13:22:00,
2013-04-01 06:27:00,44.8,34.5,29.98,NNE,22,5.0,7.0,67,0.00,,,0.00,Wunderground v.1.15,2013-04-01 13:27:00,
2013-04-01 06:32:00,44.7,34.4,29.98,NNE,22,4.0,7.0,67,0.00,,,0.00,Wunderground v.1.15,2013-04-01 13:32:00,
2013-04-01 06:37:00,44.7,34.4,29.98,NNE,23,3.0,7.0,67,0.00,,,0.00,Wunderground v.1.15,2013-04-01 13:37:00,
2013-04-01 06:42:00,44.7,34.4,29.98,NNE,23,4.0,5.0,67,0.00,,,0.00,Wunderground v.1.15,2013-04-01 13:42:00,
2013-04-01 06:47:00,44.6,34.3,29.98,NNE,23,4.0,5.0,67,0.00,,,0.00,Wunderground v.1.15,2013-04-01 13:47:00,
2013-04-01 06:52:00,44.6,34.3,29.99,NNE,13,5.0,6.0,67,0.00,,,0.00,Wunderground v.1.15,2013-04-01 13:52:00,
2013-04-01 06:57:00,44.6,34.3,29.98,NNE,15,4.0,7.0,67,0.00,,,0.00,Wunderground v.1.15,2013-04-01 13:57:00,
2013-04-01 07:03:00,44.4,34.1,29.99,NNE,19,4.0,5.0,67,0.00,,,0.00,Wunderground v.1.15,2013-04-01 14:03:00,
2013-04-01 07:08:00,44.3,34.4,29.99,NNE,19,4.0,6.0,68,0.00,,,0.00,Wunderground v.1.15,2013-04-01 14:08:00,
2013-04-01 07:14:00,44.4,34.5,29.99,NNE,22,6.0,6.0,68,0.00,,,0.00,Wunderground v.1.15,2013-04-01 14:14:00,
2013-04-01 07:19:00,44.5,34.2,29.99,NNE,13,5.0,7.0,67,0.00,,,0.00,Wunderground v.1.15,2013-04-01 14:19:00,
2013-04-01 07:24:00,44.4,34.1,29.99,NNE,18,6.0,9.0,67,0.00,,,0.00,Wunderground v.1.15,2013-04-01 14:24:00,
2013-04-01 07:29:00,44.3,34.4,29.99,NNE,15,6.0,9.0,68,0.00,,,0.00,Wunderground v.1.15,2013-04-01 14:29:00,
2013-04-01 07:35:00,44.4,34.5,30.00,NNE,19,4.0,8.0,68,0.00,,,0.00,Wunderground v.1.15,2013-04-01 14:35:00,
2013-04-01 07:40:00,44.5,34.6,30.00,NNE,19,5.0,5.0,68,0.00,,,0.00,Wunderground v.1.15,2013-04-01 14:40:00,
2013-04-01 07:45:00,44.7,34.4,30.00,North,11,7.0,8.0,67,0.00,,,0.00,Wunderground v.1.15,2013-04-01 14:45:00,
2013-04-01 07:50:00,44.9,34.2,30.00,NNE,13,6.0,6.0,66,0.00,,,0.00,Wunderground v.1.15,2013-04-01 14:50:00,
2013-04-01 07:55:00,45.0,34.7,30.00,North,360,6.0,7.0,67,0.00,,,0.00,Wunderground v.1.15,2013-04-01 14:55:00,
2013-04-01 08:00:00,45.4,35.5,30.00,NNE,12,4.0,5.0,68,0.00,,,0.00,Wunderground v.1.15,2013-04-01 15:00:00,
2013-04-01 08:05:00,45.6,35.3,30.00,NNE,19,6.0,7.0,67,0.00,,,0.00,Wunderground v.1.15,2013-04-01 15:05:00,
2013-04-01 08:10:00,45.6,35.3,30.00,North,355,6.0,6.0,67,0.00,,,0.00,Wunderground v.1.15,2013-04-01 15:10:00,
2013-04-01 08:15:00,45.6,34.9,30.00,North,355,5.0,8.0,66,0.00,,,0.00,Wunderground v.1.15,2013-04-01 15:15:00,
2013-04-01 08:20:00,45.6,35.3,30.00,North,5,4.0,6.0,67,0.00,,,0.00,Wunderground v.1.15,2013-04-01 15:20:00,
2013-04-01 08:25:00,45.7,35.4,30.01,NNE,28,4.0,7.0,67,0.00,,,0.00,Wunderground v.1.15,2013-04-01 15:25:00,
2013-04-01 08:30:00,45.8,35.5,30.00,NNE,24,5.0,5.0,67,0.00,,,0.00,Wunderground v.1.15,2013-04-01 15:30:00,
2013-04-01 08:36:00,45.8,35.5,30.00,North,360,5.0,6.0,67,0.00,,,0.00,Wunderground v.1.15,2013-04-01 15:36:00,
2013-04-01 08:41:00,46.2,36.2,30.00,NNE,13,4.0,5.0,68,0.00,,,0.00,Wunderground v.1.15,2013-04-01 15:41:00,
2013-04-01 08:46:00,46.6,36.2,30.00,NNE,17,4.0,5.0,67,0.00,,,0.00,Wunderground v.1.15,2013-04-01 15:46:00,
2013-04-01 08:51:00,46.5,35.7,30.00,NNE,20,6.0,7.0,66,0.00,,,0.00,Wunderground v.1.15,2013-04-01 15:51:00,
2013-04-01 08:56:00,46.7,35.9,30.00,NNE,30,4.0,7.0,66,0.00,,,0.00,Wunderground v.1.15,2013-04-01 15:56:00,
2013-04-01 09:01:00,46.8,35.6,30.00,NE,47,7.0,12.0,65,0.00,,,0.00,Wunderground v.1.15,2013-04-01 16:01:00,
2013-04-01 09:07:00,46.9,35.7,30.00,North,5,4.0,12.0,65,0.00,,,0.00,Wunderground v.1.15,2013-04-01 16:07:00,
2013-04-01 09:12:00,47.2,36.0,30.00,NE,34,8.0,11.0,65,0.00,,,0.00,Wunderground v.1.15,2013-04-01 16:12:00,
2013-04-01 09:17:00,47.3,36.1,30.00,NNE,31,9.0,12.0,65,0.00,,,0.00,Wunderground v.1.15,2013-04-01 16:17:00,
2013-04-01 09:22:00,47.3,36.1,30.00,NNE,22,9.0,10.0,65,0.00,,,0.00,Wunderground v.1.15,2013-04-01 16:22:00,
2013-04-01 09:27:00,47.0,36.2,30.00,NNE,30,7.0,11.0,66,0.00,,,0.00,Wunderground v.1.15,2013-04-01 16:27:00,
2013-04-01 09:32:00,47.4,36.6,30.00,NNE,13,7.0,9.0,66,0.00,,,0.00,Wunderground v.1.15,2013-04-01 16:32:00,
2013-04-01 09:37:00,47.7,36.9,30.00,NNE,18,4.0,9.0,66,0.00,,,0.00,Wunderground v.1.15,2013-04-01 16:37:00,
2013-04-01 09:42:00,48.1,37.3,30.00,NNE,32,5.0,7.0,66,0.00,,,0.00,Wunderground v.1.15,2013-04-01 16:42:00,
2013-04-01 09:47:00,48.2,37.0,30.00,NNE,14,5.0,9.0,65,0.00,,,0.00,Wunderground v.1.15,2013-04-01 16:47:00,
2013-04-01 09:52:00,48.4,37.2,30.00,NNE,24,3.0,8.0,65,0.00,,,0.00,Wunderground v.1.15,2013-04-01 16:52:00,
2013-04-01 09:57:00,48.8,37.2,30.00,NNE,12,2.0,8.0,64,0.00,,,0.00,Wunderground v.1.15,2013-04-01 16:57:00,
2013-04-01 10:03:00,49.2,37.9,30.00,NNE,22,2.0,5.0,65,0.00,,,0.00,Wunderground v.1.15,2013-04-01 17:03:00,
2013-04-01 10:08:00,49.7,38.0,30.00,NNE,22,1.0,5.0,64,0.00,,,0.00,Wunderground v.1.15,2013-04-01 17:08:00,
2013-04-01 10:13:00,50.3,38.2,30.00,NE,35,0.0,2.0,63,0.00,,,0.00,Wunderground v.1.15,2013-04-01 17:13:00,
2013-04-01 10:19:00,51.2,38.6,30.01,NE,37,1.0,4.0,62,0.00,,,0.00,Wunderground v.1.15,2013-04-01 17:19:00,
2013-04-01 10:24:00,51.4,38.8,30.00,NNE,26,2.0,3.0,62,0.00,,,0.00,Wunderground v.1.15,2013-04-01 17:24:00,
2013-04-01 10:29:00,51.7,38.3,30.01,NNW,339,2.0,4.0,60,0.00,,,0.00,Wunderground v.1.15,2013-04-01 17:29:00,
2013-04-01 10:34:00,52.3,39.2,30.00,NE,34,4.0,4.0,61,0.00,,,0.00,Wunderground v.1.15,2013-04-01 17:34:00,
2013-04-01 10:39:00,53.2,38.8,30.00,NE,54,1.0,5.0,58,0.00,,,0.00,Wunderground v.1.15,2013-04-01 17:39:00,
2013-04-01 10:44:00,53.6,38.7,30.00,NNE,30,0.0,5.0,57,0.00,,,0.00,Wunderground v.1.15,2013-04-01 17:44:00,
2013-04-01 10:49:00,53.7,38.8,30.00,NNE,14,3.0,5.0,57,0.00,,,0.00,Wunderground v.1.15,2013-04-01 17:49:00,
2013-04-01 10:54:00,53.6,39.2,30.00,North,355,0.0,4.0,58,0.00,,,0.00,Wunderground v.1.15,2013-04-01 17:54:00,
2013-04-01 10:59:00,53.7,38.8,30.01,North,355,2.0,4.0,57,0.00,,,0.00,Wunderground v.1.15,2013-04-01 17:59:00,
2013-04-01 11:04:00,54.0,39.5,30.01,North,355,0.0,3.0,58,0.00,,,0.00,Wunderground v.1.15,2013-04-01 18:04:00,
2013-04-01 11:09:00,54.7,39.3,30.01,North,5,0.0,3.0,56,0.00,,,0.00,Wunderground v.1.15,2013-04-01 18:09:00,
2013-04-01 11:14:00,55.6,39.2,30.01,North,5,0.0,1.0,54,0.00,,,0.00,Wunderground v.1.15,2013-04-01 18:14:00,
2013-04-01 11:19:00,56.4,38.5,30.01,North,5,0.0,2.0,51,0.00,,,0.00,Wunderground v.1.15,2013-04-01 18:19:00,
2013-04-01 11:24:00,57.1,39.1,30.01,North,5,0.0,1.0,51,0.00,,,0.00,Wunderground v.1.15,2013-04-01 18:24:00,
2013-04-01 11:29:00,57.6,39.1,30.01,NNE,26,0.0,2.0,50,0.00,,,0.00,Wunderground v.1.15,2013-04-01 18:29:00,
2013-04-01 11:34:00,58.0,38.9,30.01,SSW,196,3.0,3.0,49,0.00,,,0.00,Wunderground v.1.15,2013-04-01 18:34:00,
2013-04-01 11:40:00,58.2,39.1,30.01,SSW,196,0.0,1.0,49,0.00,,,0.00,Wunderground v.1.15,2013-04-01 18:40:00,
2013-04-01 11:45:00,58.8,39.1,30.00,SSW,196,0.0,2.0,48,0.00,,,0.00,Wunderground v.1.15,2013-04-01 18:45:00,
2013-04-01 11:50:00,59.4,39.1,30.00,SSW,196,2.0,2.0,47,0.00,,,0.00,Wunderground v.1.15,2013-04-01 18:50:00,
2013-04-01 11:55:00,59.7,38.9,30.00,SSW,203,4.0,4.0,46,0.00,,,0.00,Wunderground v.1.15,2013-04-01 18:55:00,
2013-04-01 12:00:00,59.7,38.3,30.00,SSW,203,0.0,1.0,45,0.00,,,0.00,Wunderground v.1.15,2013-04-01 19:00:00,
2013-04-01 12:05:00,60.2,39.9,30.00,SSW,194,2.0,3.0,47,0.00,,,0.00,Wunderground v.1.15,2013-04-01 19:05:00,
2013-04-01 12:10:00,60.7,38.6,30.00,South,183,2.0,3.0,44,0.00,,,0.00,Wunderground v.1.15,2013-04-01 19:10:00,
2013-04-01 12:15:00,60.8,38.7,30.00,SSE,151,4.0,5.0,44,0.00,,,0.00,Wunderground v.1.15,2013-04-01 19:15:00,
2013-04-01 12:20:00,60.3,38.3,30.00,SE,146,0.0,2.0,44,0.00,,,0.00,Wunderground v.1.15,2013-04-01 19:20:00,
2013-04-01 12:25:00,61.2,39.1,30.00,NW,304,3.0,3.0,44,0.00,,,0.00,Wunderground v.1.15,2013-04-01 19:25:00,
2013-04-01 12:30:00,61.8,39.6,30.00,WSW,242,0.0,1.0,44,0.00,,,0.00,Wunderground v.1.15,2013-04-01 19:30:00,
2013-04-01 12:35:00,62.5,39.1,30.00,WSW,242,1.0,3.0,42,0.00,,,0.00,Wunderground v.1.15,2013-04-01 19:35:00,
2013-04-01 12:40:00,62.2,38.8,30.00,NNW,327,2.0,3.0,42,0.00,,,0.00,Wunderground v.1.15,2013-04-01 19:40:00,
2013-04-01 12:45:00,61.8,39.1,29.99,NW,314,1.0,5.0,43,0.00,,,0.00,Wunderground v.1.15,2013-04-01 19:45:00,
2013-04-01 12:50:00,62.2,39.4,29.99,ESE,117,1.0,2.0,43,0.00,,,0.00,Wunderground v.1.15,2013-04-01 19:50:00,
2013-04-01 12:55:00,62.8,39.4,29.99,ESE,117,0.0,2.0,42,0.00,,,0.00,Wunderground v.1.15,2013-04-01 19:55:00,
2013-04-01 13:00:00,63.4,39.3,29.99,SSW,213,1.0,1.0,41,0.00,,,0.00,Wunderground v.1.15,2013-04-01 20:00:00,
2013-04-01 13:05:00,63.6,40.1,29.99,SSW,209,0.0,3.0,42,0.00,,,0.00,Wunderground v.1.15,2013-04-01 20:05:00,
2013-04-01 13:10:00,64.5,40.9,29.99,WNW,302,1.0,2.0,42,0.00,,,0.00,Wunderground v.1.15,2013-04-01 20:10:00,
2013-04-01 13:15:00,64.5,39.6,29.99,South,189,0.0,5.0,40,0.00,,,0.00,Wunderground v.1.15,2013-04-01 20:15:00,
2013-04-01 13:20:00,64.9,40.0,29.99,WSW,242,3.0,5.0,40,0.00,,,0.00,Wunderground v.1.15,2013-04-01 20:20:00,
2013-04-01 13:25:00,64.6,39.7,29.98,WSW,241,2.0,6.0,40,0.00,,,0.00,Wunderground v.1.15,2013-04-01 20:25:00,
2013-04-01 13:30:00,64.9,40.6,29.98,WSW,238,1.0,2.0,41,0.00,,,0.00,Wunderground v.1.15,2013-04-01 20:30:00,
2013-04-01 13:35:00,65.5,39.9,29.98,SSW,203,1.0,3.0,39,0.00,,,0.00,Wunderground v.1.15,2013-04-01 20:35:00,
2013-04-01 13:40:00,64.8,39.2,29.98,SE,133,1.0,4.0,39,0.00,,,0.00,Wunderground v.1.15,2013-04-01 20:40:00,
2013-04-01 13:45:00,64.8,39.9,29.98,SSE,150,1.0,4.0,40,0.00,,,0.00,Wunderground v.1.15,2013-04-01 20:45:00,
2013-04-01 13:50:00,65.8,40.1,29.98,SSE,159,2.0,2.0,39,0.00,,,0.00,Wunderground v.1.15,2013-04-01 20:50:00,
2013-04-01 13:56:00,65.8,40.1,29.98,ESE,119,2.0,4.0,39,0.00,,,0.00,Wunderground v.1.15,2013-04-01 20:56:00,
2013-04-01 14:01:00,65.2,39.6,29.98,SE,129,0.0,2.0,39,0.00,,,0.00,Wunderground v.1.15,2013-04-01 21:01:00,
2013-04-01 14:06:00,65.2,39.6,29.98,East,96,3.0,5.0,39,0.00,,,0.00,Wunderground v.1.15,2013-04-01 21:06:00,
2013-04-01 14:11:00,65.1,39.5,29.98,ESE,121,0.0,2.0,39,0.00,,,0.00,Wunderground v.1.15,2013-04-01 21:11:00,
2013-04-01 14:16:00,65.4,39.8,29.97,SSW,204,2.0,6.0,39,0.00,,,0.00,Wunderground v.1.15,2013-04-01 21:16:00,
2013-04-01 14:21:00,65.7,39.4,29.97,SSW,210,6.0,7.0,38,0.00,,,0.00,Wunderground v.1.15,2013-04-01 21:21:00,
2013-04-01 14:26:00,65.9,39.6,29.97,SSW,197,0.0,8.0,38,0.00,,,0.00,Wunderground v.1.15,2013-04-01 21:26:00,
2013-04-01 14:31:00,66.5,40.1,29.97,SSW,197,2.0,3.0,38,0.00,,,0.00,Wunderground v.1.15,2013-04-01 21:31:00,
2013-04-01 14:37:00,67.4,39.5,29.97,SW,224,2.0,4.0,36,0.00,,,0.00,Wunderground v.1.15,2013-04-01 21:37:00,
2013-04-01 14:42:00,68.2,39.5,29.97,West,262,1.0,2.0,35,0.00,,,0.00,Wunderground v.1.15,2013-04-01 21:42:00,
2013-04-01 14:47:00,68.0,38.6,29.97,SSE,168,2.0,5.0,34,0.00,,,0.00,Wunderground v.1.15,2013-04-01 21:47:00,
2013-04-01 14:52:00,68.0,39.3,29.97,South,169,1.0,3.0,35,0.00,,,0.00,Wunderground v.1.15,2013-04-01 21:52:00,
2013-04-01 14:57:00,67.3,38.7,29.96,SE,128,2.0,4.0,35,0.00,,,0.00,Wunderground v.1.15,2013-04-01 21:57:00,
2013-04-01 15:02:00,67.4,39.5,29.96,WNW,294,0.0,3.0,36,0.00,,,0.00,Wunderground v.1.15,2013-04-01 22:02:00,
2013-04-01 15:07:00,67.7,39.8,29.96,NE,40,3.0,4.0,36,0.00,,,0.00,Wunderground v.1.15,2013-04-01 22:07:00,
2013-04-01 15:12:00,67.5,38.9,29.96,East,90,3.0,3.0,35,0.00,,,0.00,Wunderground v.1.15,2013-04-01 22:12:00,
2013-04-01 15:17:00,68.4,38.2,29.96,WNW,286,3.0,3.0,33,0.00,,,0.00,Wunderground v.1.15,2013-04-01 22:17:00,
2013-04-01 15:22:00,69.1,38.0,29.96,West,277,0.0,1.0,32,0.00,,,0.00,Wunderground v.1.15,2013-04-01 22:22:00,
2013-04-01 15:27:00,69.7,38.5,29.95,SSW,205,4.0,4.0,32,0.00,,,0.00,Wunderground v.1.15,2013-04-01 22:27:00,
2013-04-01 15:32:00,69.1,36.3,29.96,SW,221,4.0,6.0,30,0.00,,,0.00,Wunderground v.1.15,2013-04-01 22:32:00,
2013-04-01 15:37:00,68.6,36.7,29.95,WSW,246,2.0,6.0,31,0.00,,,0.00,Wunderground v.1.15,2013-04-01 22:37:00,
2013-04-01 15:42:00,68.5,37.5,29.95,WNW,289,4.0,7.0,32,0.00,,,0.00,Wunderground v.1.15,2013-04-01 22:42:00,
2013-04-01 15:48:00,68.4,36.6,29.95,WSW,245,7.0,8.0,31,0.00,,,0.00,Wunderground v.1.15,2013-04-01 22:48:00,
2013-04-01 15:53:00,68.3,36.5,29.95,West,268,6.0,7.0,31,0.00,,,0.00,Wunderground v.1.15,2013-04-01 22:53:00,
2013-04-01 15:59:00,68.3,36.5,29.95,NE,44,3.0,7.0,31,0.00,,,0.00,Wunderground v.1.15,2013-04-01 22:59:00,
2013-04-01 16:04:00,68.1,36.3,29.95,West,263,3.0,6.0,31,0.00,,,0.00,Wunderground v.1.15,2013-04-01 23:04:00,
2013-04-01 16:09:00,68.3,36.5,29.95,West,274,0.0,7.0,31,0.00,,,0.00,Wunderground v.1.15,2013-04-01 23:09:00,
2013-04-01 16:14:00,68.9,35.3,29.95,West,272,3.0,9.0,29,0.00,,,0.00,Wunderground v.1.15,2013-04-01 23:14:00,
2013-04-01 16:19:00,68.7,33.3,29.95,West,280,5.0,9.0,27,0.00,,,0.00,Wunderground v.1.15,2013-04-01 23:19:00,
2013-04-01 16:24:00,68.1,32.8,29.95,NNW,331,2.0,6.0,27,0.00,,,0.00,Wunderground v.1.15,2013-04-01 23:24:00,
2013-04-01 16:29:00,68.0,33.7,29.95,North,350,0.0,6.0,28,0.00,,,0.00,Wunderground v.1.15,2013-04-01 23:29:00,
2013-04-01 16:34:00,69.4,33.9,29.95,WSW,246,3.0,3.0,27,0.00,,,0.00,Wunderground v.1.15,2013-04-01 23:34:00,
2013-04-01 16:39:00,69.4,34.9,29.95,WNW,288,4.0,5.0,28,0.00,,,0.00,Wunderground v.1.15,2013-04-01 23:39:00,
2013-04-01 16:44:00,68.6,35.1,29.95,SW,232,2.0,8.0,29,0.00,,,0.00,Wunderground v.1.15,2013-04-01 23:44:00,
2013-04-01 16:49:00,68.8,35.2,29.95,WSW,250,0.0,8.0,29,0.00,,,0.00,Wunderground v.1.15,2013-04-01 23:49:00,
2013-04-01 16:54:00,69.0,35.4,29.95,West,281,3.0,4.0,29,0.00,,,0.00,Wunderground v.1.15,2013-04-01 23:54:00,
2013-04-01 16:59:00,68.4,35.7,29.95,West,280,4.0,6.0,30,0.00,,,0.00,Wunderground v.1.15,2013-04-01 23:59:00,
2013-04-01 17:04:00,68.1,35.5,29.95,West,278,4.0,8.0,30,0.00,,,0.00,Wunderground v.1.15,2013-04-02 00:04:00,
2013-04-01 17:09:00,68.1,36.3,29.95,NW,311,3.0,8.0,31,0.00,,,0.00,Wunderground v.1.15,2013-04-02 00:09:00,
2013-04-01 17:14:00,68.1,35.5,29.95,WNW,298,1.0,6.0,30,0.00,,,0.00,Wunderground v.1.15,2013-04-02 00:14:00,
2013-04-01 17:19:00,68.1,36.3,29.95,WNW,286,3.0,6.0,31,0.00,,,0.00,Wunderground v.1.15,2013-04-02 00:19:00,
2013-04-01 17:24:00,68.2,35.6,29.95,WNW,290,2.0,5.0,30,0.00,,,0.00,Wunderground v.1.15,2013-04-02 00:24:00,
2013-04-01 17:29:00,68.2,36.4,29.95,WNW,290,0.0,5.0,31,0.00,,,0.00,Wunderground v.1.15,2013-04-02 00:29:00,
2013-04-01 17:35:00,68.4,36.6,29.95,WNW,290,0.0,2.0,31,0.00,,,0.00,Wunderground v.1.15,2013-04-02 00:35:00,
2013-04-01 17:40:00,68.5,37.5,29.94,WNW,287,1.0,1.0,32,0.00,,,0.00,Wunderground v.1.15,2013-04-02 00:40:00,
2013-04-01 17:45:00,69.1,38.0,29.94,NW,312,1.0,5.0,32,0.00,,,0.00,Wunderground v.1.15,2013-04-02 00:45:00,
2013-04-01 17:50:00,68.6,36.7,29.95,NW,312,0.0,1.0,31,0.00,,,0.00,Wunderground v.1.15,2013-04-02 00:50:00,
2013-04-01 17:55:00,68.2,36.4,29.94,North,10,1.0,3.0,31,0.00,,,0.00,Wunderground v.1.15,2013-04-02 00:55:00,
2013-04-01 18:00:00,67.9,37.7,29.94,North,10,0.0,1.0,33,0.00,,,0.00,Wunderground v.1.15,2013-04-02 01:00:00,
2013-04-01 18:05:00,68.3,37.3,29.95,North,10,0.0,1.0,32,0.00,,,0.00,Wunderground v.1.15,2013-04-02 01:05:00,
2013-04-01 18:10:00,68.2,37.2,29.94,NNW,336,4.0,6.0,32,0.00,,,0.00,Wunderground v.1.15,2013-04-02 01:10:00,
2013-04-01 18:15:00,68.1,38.7,29.94,NW,320,2.0,6.0,34,0.00,,,0.00,Wunderground v.1.15,2013-04-02 01:15:00,
2013-04-01 18:20:00,68.5,37.5,29.94,NW,320,2.0,2.0,32,0.00,,,0.00,Wunderground v.1.15,2013-04-02 01:20:00,
2013-04-01 18:25:00,68.5,37.5,29.94,NW,320,0.0,3.0,32,0.00,,,0.00,Wunderground v.1.15,2013-04-02 01:25:00,
2013-04-01 18:30:00,68.9,37.8,29.94,NW,320,0.0,1.0,32,0.00,,,0.00,Wunderground v.1.15,2013-04-02 01:30:00,
2013-04-01 18:35:00,69.2,38.1,29.95,NW,320,0.0,1.0,32,0.00,,,0.00,Wunderground v.1.15,2013-04-02 01:35:00,
2013-04-01 18:40:00,69.1,37.2,29.95,NW,320,0.0,0.0,31,0.00,,,0.00,Wunderground v.1.15,2013-04-02 01:40:00,
2013-04-01 18:45:00,68.7,37.6,29.95,NW,320,0.0,1.0,32,0.00,,,0.00,Wunderground v.1.15,2013-04-02 01:45:00,
2013-04-01 18:50:00,68.3,37.3,29.95,NW,320,0.0,1.0,32,0.00,,,0.00,Wunderground v.1.15,2013-04-02 01:50:00,
2013-04-01 18:55:00,67.8,36.8,29.95,NW,320,2.0,2.0,32,0.00,,,0.00,Wunderground v.1.15,2013-04-02 01:55:00,
2013-04-01 19:00:00,67.5,36.6,29.95,NW,320,0.0,1.0,32,0.00,,,0.00,Wunderground v.1.15,2013-04-02 02:00:00,
2013-04-01 19:05:00,67.3,36.4,29.95,NW,320,1.0,2.0,32,0.00,,,0.00,Wunderground v.1.15,2013-04-02 02:05:00,
2013-04-01 19:10:00,66.9,36.1,29.95,NW,320,1.0,2.0,32,0.00,,,0.00,Wunderground v.1.15,2013-04-02 02:10:00,
2013-04-01 19:15:00,66.5,35.7,29.95,NW,320,2.0,3.0,32,0.00,,,0.00,Wunderground v.1.15,2013-04-02 02:15:00,
2013-04-01 19:20:00,66.1,35.4,29.95,NW,320,0.0,2.0,32,0.00,,,0.00,Wunderground v.1.15,2013-04-02 02:20:00,
2013-04-01 19:25:00,65.8,35.9,29.95,NW,320,2.0,3.0,33,0.00,,,0.00,Wunderground v.1.15,2013-04-02 02:25:00,
2013-04-01 19:30:00,65.6,35.7,29.95,NW,320,2.0,2.0,33,0.00,,,0.00,Wunderground v.1.15,2013-04-02 02:30:00,
2013-04-01 19:35:00,65.4,35.5,29.95,NW,319,2.0,4.0,33,0.00,,,0.00,Wunderground v.1.15,2013-04-02 02:35:00,
2013-04-01 19:41:00,65.2,36.1,29.95,West,275,3.0,4.0,34,0.00,,,0.00,Wunderground v.1.15,2013-04-02 02:41:00,
2013-04-01 19:46:00,65.2,36.1,29.95,West,267,4.0,4.0,34,0.00,,,0.00,Wunderground v.1.15,2013-04-02 02:46:00,
2013-04-01 19:51:00,65.1,36.0,29.96,West,267,3.0,3.0,34,0.00,,,0.00,Wunderground v.1.15,2013-04-02 02:51:00,
2013-04-01 19:57:00,65.2,36.1,29.96,West,267,2.0,3.0,34,0.00,,,0.00,Wunderground v.1.15,2013-04-02 02:57:00,
2013-04-01 20:02:00,65.2,36.1,29.96,WSW,257,2.0,4.0,34,0.00,,,0.00,Wunderground v.1.15,2013-04-02 03:02:00,
2013-04-01 20:07:00,65.1,36.0,29.96,WSW,257,3.0,4.0,34,0.00,,,0.00,Wunderground v.1.15,2013-04-02 03:07:00,
2013-04-01 20:12:00,64.7,35.7,29.96,SW,235,5.0,7.0,34,0.00,,,0.00,Wunderground v.1.15,2013-04-02 03:12:00,
2013-04-01 20:17:00,64.4,36.1,29.96,SW,229,3.0,7.0,35,0.00,,,0.00,Wunderground v.1.15,2013-04-02 03:17:00,
2013-04-01 20:22:00,64.0,36.5,29.97,SW,233,3.0,4.0,36,0.00,,,0.00,Wunderground v.1.15,2013-04-02 03:22:00,
2013-04-01 20:27:00,63.7,36.9,29.97,SW,233,3.0,5.0,37,0.00,,,0.00,Wunderground v.1.15,2013-04-02 03:27:00,
2013-04-01 20:32:00,63.5,36.7,29.97,SW,232,4.0,5.0,37,0.00,,,0.00,Wunderground v.1.15,2013-04-02 03:32:00,
2013-04-01 20:37:00,63.2,37.2,29.97,SW,232,5.0,5.0,38,0.00,,,0.00,Wunderground v.1.15,2013-04-02 03:37:00,
2013-04-01 20:42:00,62.7,37.4,29.97,SW,224,5.0,5.0,39,0.00,,,0.00,Wunderground v.1.15,2013-04-02 03:42:00,
2013-04-01 20:47:00,62.5,37.8,29.97,SW,224,5.0,5.0,40,0.00,,,0.00,Wunderground v.1.15,2013-04-02 03:47:00,
2013-04-01 20:52:00,62.4,37.7,29.97,SW,224,4.0,6.0,40,0.00,,,0.00,Wunderground v.1.15,2013-04-02 03:52:00,
2013-04-01 20:57:00,61.7,37.7,29.97,SW,224,5.0,6.0,41,0.00,,,0.00,Wunderground v.1.15,2013-04-02 03:57:00,
2013-04-01 21:00:00,61.6,37.7,29.97,SW,224,5.0,5.0,41,0.00,,,0.00,Wunderground v.1.15,2013-04-02 04:00:00,
2013-04-01 21:05:00,61.3,38.0,29.98,SW,223,3.0,6.0,42,0.00,,,0.00,Wunderground v.1.15,2013-04-02 04:05:00,
2013-04-01 21:10:00,60.9,38.2,29.98,SW,223,4.0,4.0,43,0.00,,,0.00,Wunderground v.1.15,2013-04-02 04:10:00,
2013-04-01 21:15:00,60.6,38.0,29.98,SW,223,5.0,5.0,43,0.00,,,0.00,Wunderground v.1.15,2013-04-02 04:15:00,
2013-04-01 21:20:00,60.3,37.7,29.98,SW,223,4.0,5.0,43,0.00,,,0.00,Wunderground v.1.15,2013-04-02 04:20:00,
2013-04-01 21:25:00,60.1,38.1,29.98,SW,223,3.0,5.0,44,0.00,,,0.00,Wunderground v.1.15,2013-04-02 04:25:00,
2013-04-01 21:30:00,60.0,38.0,29.98,SW,223,4.0,5.0,44,0.00,,,0.00,Wunderground v.1.15,2013-04-02 04:30:00,
2013-04-01 21:35:00,59.7,37.7,29.98,SW,223,5.0,5.0,44,0.00,,,0.00,Wunderground v.1.15,2013-04-02 04:35:00,
2013-04-01 21:40:00,59.7,37.7,29.98,SW,224,5.0,6.0,44,0.00,,,0.00,Wunderground v.1.15,2013-04-02 04:40:00,
2013-04-01 21:46:00,59.6,37.6,29.98,SW,224,4.0,6.0,44,0.00,,,0.00,Wunderground v.1.15,2013-04-02 04:46:00,
2013-04-01 21:51:00,59.6,37.6,29.98,SW,224,4.0,5.0,44,0.00,,,0.00,Wunderground v.1.15,2013-04-02 04:51:00,
2013-04-01 21:56:00,59.6,37.6,29.98,SW,224,4.0,6.0,44,0.00,,,0.00,Wunderground v.1.15,2013-04-02 04:56:00,
2013-04-01 22:01:00,59.4,37.5,29.98,SW,224,5.0,5.0,44,0.00,,,0.00,Wunderground v.1.15,2013-04-02 05:01:00,
2013-04-01 22:06:00,59.4,37.5,29.98,SW,224,5.0,6.0,44,0.00,,,0.00,Wunderground v.1.15,2013-04-02 05:06:00,
2013-04-01 22:11:00,59.2,37.3,29.98,SW,224,3.0,4.0,44,0.00,,,0.00,Wunderground v.1.15,2013-04-02 05:11:00,
2013-04-01 22:16:00,58.9,37.6,29.98,SW,224,3.0,5.0,45,0.00,,,0.00,Wunderground v.1.15,2013-04-02 05:16:00,
2013-04-01 22:21:00,58.6,37.3,29.98,SW,224,3.0,3.0,45,0.00,,,0.00,Wunderground v.1.15,2013-04-02 05:21:00,
2013-04-01 22:27:00,58.7,37.4,29.98,SW,224,5.0,6.0,45,0.00,,,0.00,Wunderground v.1.15,2013-04-02 05:27:00,
2013-04-01 22:32:00,58.1,37.4,29.98,SSW,199,5.0,7.0,46,0.00,,,0.00,Wunderground v.1.15,2013-04-02 05:32:00,
2013-04-01 22:37:00,57.3,37.8,29.98,SSW,197,5.0,7.0,48,0.00,,,0.00,Wunderground v.1.15,2013-04-02 05:37:00,
2013-04-01 22:42:00,56.6,37.6,29.98,SSW,200,6.0,6.0,49,0.00,,,0.00,Wunderground v.1.15,2013-04-02 05:42:00,
2013-04-01 22:47:00,56.7,37.2,29.98,SW,220,7.0,8.0,48,0.00,,,0.00,Wunderground v.1.15,2013-04-02 05:47:00,
2013-04-01 22:52:00,56.8,37.3,29.98,SW,223,6.0,8.0,48,0.00,,,0.00,Wunderground v.1.15,2013-04-02 05:52:00,
2013-04-01 22:57:00,57.1,37.6,29.98,SW,223,8.0,9.0,48,0.00,,,0.00,Wunderground v.1.15,2013-04-02 05:57:00,
2013-04-01 23:02:00,57.3,37.8,29.98,SW,227,6.0,8.0,48,0.00,,,0.00,Wunderground v.1.15,2013-04-02 06:02:00,
2013-04-01 23:07:00,57.3,37.8,29.98,SW,236,10.0,12.0,48,0.00,,,0.00,Wunderground v.1.15,2013-04-02 06:07:00,
2013-04-01 23:12:00,57.2,37.7,29.98,SW,229,8.0,10.0,48,0.00,,,0.00,Wunderground v.1.15,2013-04-02 06:12:00,
2013-04-01 23:17:00,57.1,37.6,29.98,SW,219,7.0,10.0,48,0.00,,,0.00,Wunderground v.1.15,2013-04-02 06:17:00,
2013-04-01 23:22:00,56.8,37.8,29.98,SW,230,7.0,9.0,49,0.00,,,0.00,Wunderground v.1.15,2013-04-02 06:22:00,
2013-04-01 23:27:00,55.8,37.9,29.98,SW,216,7.0,9.0,51,0.00,,,0.00,Wunderground v.1.15,2013-04-02 06:27:00,
2013-04-01 23:33:00,55.4,38.1,29.98,SW,214,7.0,9.0,52,0.00,,,0.00,Wunderground v.1.15,2013-04-02 06:33:00,
2013-04-01 23:38:00,55.5,38.1,29.99,SW,214,9.0,9.0,52,0.00,,,0.00,Wunderground v.1.15,2013-04-02 06:38:00,
2013-04-01 23:43:00,55.6,38.2,29.99,SW,221,9.0,10.0,52,0.00,,,0.00,Wunderground v.1.15,2013-04-02 06:43:00,
2013-04-01 23:48:00,55.7,38.3,29.99,SW,218,9.0,12.0,52,0.00,,,0.00,Wunderground v.1.15,2013-04-02 06:48:00,
2013-04-01 23:53:00,55.9,38.5,29.99,SW,215,7.0,13.0,52,0.00,,,0.00,Wunderground v.1.15,2013-04-02 06:53:00,
2013-04-01 23:58:00,55.7,38.3,29.99,SSW,211,7.0,14.0,52,0.00,,,0.00,Wunderground v.1.15,2013-04-02 06:58:00,